Regional Weather Roundup
Issued by NWS

Home | Current Version | Previous Version | Graphics & Text | Print | Product List | Glossary On
Versions: 1 2 3 4 5 6 7 8 9 10 11 12 13 14 15 16 17 18 19 20 21 22 23 24 25 26 27 28 29 30 31 32 33 34 35 36 37 38 39 40 41 42 43 44 45 46 47 48 49 50
000
ASUS43 KOAX 250702
RWRNE

WEATHER ROUNDUP FOR NEBRASKA
NATIONAL WEATHER SERVICE OMAHA NE
200 AM CDT TUE JUL 25 2017

NOTES: SATELLITE DATA IS BEING USED TO AUGMENT CLOUD COVER ABOVE
       12000 FEET.
       "FAIR" INDICATES FEW OR NO CLOUDS BELOW 12,000 FEET WITH NO
       SIGNIFICANT WEATHER AND/OR OBSTRUCTIONS TO VISIBILITY.


NEZ001>004-019>022-054>056-250800-
NEBRASKA PANHANDLE

CITY           SKY/WX    TMP DP  RH WIND       PRES   REMARKS
SCOTTSBLUFF    FAIR      82  54  37 S15       29.94F
ALLIANCE       FAIR      79  54  41 S17       29.94F
CHADRON        FAIR      79  51  37 SW10      29.87F
GORDON         FAIR      68  57  68 CALM      29.93S
KIMBALL        FAIR      75  57  53 S17       30.05S
SIDNEY         FAIR      76  59  55 S18G26    30.02S
$$

NEZ057>060-069>072-079>082-250800-
SOUTHWEST NEBRASKA

CITY           SKY/WX    TMP DP  RH WIND       PRES   REMARKS
NORTH PLATTE   FAIR      82  55  39 S12       29.96
IMPERIAL       FAIR      80  56  43 S15G25    29.97F
LEXINGTON      FAIR      77  56  48 S10       29.97S
MCCOOK         FAIR      81  54  39 S15       29.97R
OGALLALA       FAIR      80  61  52 S9        29.95S
$$

NEZ005>010-023>029-035>040-094-250800-
NORTH CENTRAL NEBRASKA

CITY           SKY/WX    TMP DP  RH WIND       PRES   REMARKS
VALENTINE      FAIR      79  63  57 S9        29.91S
AINSWORTH      FAIR      76  69  78 S12       29.92F
BROKEN BOW     FAIR      76  59  55 S10       29.96F
O`NEILL        FAIR      77  70  79 S15       29.91F
ORD            FAIR      76  68  76 S8        29.94S
THEDFORD       FAIR      82  56  41 S12       29.94F
$$

NEZ041-046>049-061>064-073>077-083>087-250800-
SOUTH CENTRAL NEBRASKA

CITY           SKY/WX    TMP DP  RH WIND       PRES   REMARKS
GRAND ISLAND   FAIR      76  72  87 S14       29.97F
AURORA         FAIR      76  73  92 S12       29.97F
HASTINGS       FAIR      78  66  66 S10       29.99F
HEBRON         FAIR      78  73  84 S9        29.99F
HOLDREGE       FAIR      71  62  73 S8        29.98F
KEARNEY        FAIR      74  67  78 S13       29.97F
YORK           FAIR      75  72  88 S10       29.98F
$$

NEZ011>018-030>034-042>045-250800-
NORTHEAST NEBRASKA

CITY           SKY/WX    TMP DP  RH WIND       PRES   REMARKS
NORFOLK        FAIR      75  66  73 S8        29.94F
ALBION         FAIR      75  70  85 E5        29.96S
BLAIR          FAIR      75  66  71 S13       29.98F
COLUMBUS       FAIR      76  69  79 S14       29.96F
FREMONT        FAIR      74  66  75 SE10      29.98S
TEKAMAH        FAIR      72  66  81 SE8       29.96F
WAYNE          FAIR      74  72  91 S10G21    29.94R
$$

NEZ050>053-065>068-078-088>093-250800-
SOUTHEAST NEBRASKA

CITY           SKY/WX    TMP DP  RH WIND       PRES   REMARKS
LINCOLN        FAIR      74  67  78 S8        29.99S
OMAHA EPPLEY   FAIR      75  65  70 SE13      29.99S
BEATRICE       FAIR      76  68  77 S9        30.00S
FALLS CITY     FAIR      70  67  90 SE5       30.01S
NEBRASKA CITY  FAIR      71  70  95 S7        30.01S
PLATTSMOUTH    FAIR      72  65  79 SE9       30.01R
$$

NEZ044-045-051>053-067-250800-
OMAHA AREA

CITY           SKY/WX    TMP DP  RH WIND       PRES   REMARKS
OMAHA EPPLEY   FAIR      75  65  70 SE13      29.99S
BLAIR          FAIR      75  66  71 S13       29.98F
FREMONT        FAIR      74  66  75 SE10      29.98S
MILLARD        FAIR      76  68  78 SE8       29.99F
OFFUTT AFB     FAIR      71  65  82 SE6       29.99S
PLATTSMOUTH    FAIR      72  65  79 SE9       30.01R
WAHOO          FAIR      70  67  90 SE7       29.98S
$$




USA.gov is the U.S. government's official web portal to all federal, state and local government web resources and services.